Weather History for KMTJ - August, 2014

Change the Weather History Date:

Saturday, August 23, 2014

  Actual Average Record
Temperature  
Mean Temperature 61 °F 70 °F  
Max Temperature 67 °F 84 °F 96 °F (2008)
Min Temperature 55 °F 55 °F 45 °F (2001)
Degree Days  
Heating Degree Days 4 0  
Month to date heating degree days 4 0  
Since 1 June heating degree days 22 39  
Since 1 July heating degree days 4 0  
Cooling Degree Days 0 5  
Month to date cooling degree days 156 152  
Year to date cooling degree days 678 574  
Since 1 June cooling degree days 637 557  
Growing Degree Days 10 (Base 50)    
Moisture  
Dew Point 53 °F    
Average Humidity 81    
Maximum Humidity 93    
Minimum Humidity 69    
Precipitation  
Precipitation 0.17 in 0.03 in 0.46 in (2012)
Month to date precipitation 1.07 0.91  
Year to date precipitation 5.17 6.98  
Sea Level Pressure  
Sea Level Pressure 30.00 in    
Wind  
Wind Speed 7 mph (SE)    
Max Wind Speed 24 mph    
Max Gust Speed 31 mph    
Visibility 10 miles    
Events Rain , Thunderstorm    
T = Trace of Precipitation, MM = Missing Value Source: NWS Daily Summary

Daily Weather History Graph

Daily Weather History Graph

Search for Another Location

Airport or City:

Trip Planner

Search our weather history database for the weather conditions in past years. The results will help you decide how hot, cold, wet, or windy it might be!

Date:

Astronomy

Aug. 23, 2014 Rise Set
Actual Time 6:33 AM MDT 7:54 PM MDT
Civil Twilight 6:05 AM MDT 8:22 PM MDT
Nautical Twilight 5:32 AM MDT 8:55 PM MDT
Astronomical Twilight 4:57 AM MDT 9:30 PM MDT
Moon 4:52 AM MDT (8/23) 6:40 PM MDT (8/23)
Length of Visible Light 14h 16m
Length of Day
13h 21m
Waning Crescent, 3% of the Moon is Illuminated
Aug 23
Waning Crescent
Aug 25
New
Sep 2
First Quarter
Sep 8
Full
Sep 15
Last Quarter

Hourly Weather History & Observations

Time (MDT) Temp. Dew Point Humidity Pressure Visibility Wind Dir Wind Speed Gust Speed Precip Events Conditions
12:53 AM 57.9 °F 52.0 °F 81% 29.91 in 10.0 mi ESE 3.5 mph - N/A   Overcast
1:53 AM 57.9 °F 51.1 °F 78% 29.89 in 10.0 mi South 8.1 mph - N/A   Overcast
3:53 AM 59.0 °F 50.0 °F 72% 29.88 in 10.0 mi ESE 5.8 mph - N/A   Overcast
6:53 AM 55.9 °F 53.1 °F 90% 29.93 in 10.0 mi Calm Calm - 0.00 in   Overcast
7:53 AM 57.0 °F 54.0 °F 89% 29.93 in 10.0 mi SSE 5.8 mph - 0.01 in Rain Light Rain
8:53 AM 59.0 °F 53.1 °F 81% 29.93 in 10.0 mi Calm Calm - 0.00 in   Mostly Cloudy
9:53 AM 60.1 °F 54.0 °F 80% 29.95 in 10.0 mi Calm Calm - 0.00 in   Overcast
10:53 AM 63.0 °F 55.0 °F 75% 29.94 in 10.0 mi NNW 4.6 mph - 0.00 in   Overcast
11:53 AM 64.9 °F 57.0 °F 75% 29.94 in 10.0 mi NNW 15.0 mph - N/A   Scattered Clouds
12:16 PM 64.0 °F 55.9 °F 75% 30.13 in 10.0 mi NNW 16.1 mph 23.0 mph 0.00 in Rain Light Rain
12:53 PM 57.9 °F 52.0 °F 81% 30.00 in 10.0 mi NNW 17.3 mph 25.3 mph 0.01 in Rain Light Rain
1:02 PM 57.0 °F 52.0 °F 83% 30.16 in 10.0 mi North 18.4 mph 24.2 mph 0.00 in Rain Light Rain
1:53 PM 57.9 °F 53.1 °F 84% 30.01 in 10.0 mi North 6.9 mph - 0.01 in Rain Light Rain
3:53 PM 60.1 °F 53.1 °F 78% 29.99 in 10.0 mi SSE 9.2 mph - 0.00 in Rain Light Rain
4:53 PM 60.1 °F 53.1 °F 78% 30.00 in 10.0 mi SSW 9.2 mph - 0.01 in Rain Light Rain
5:53 PM 61.0 °F 52.0 °F 72% 30.00 in 10.0 mi SSE 10.4 mph - 0.01 in   Mostly Cloudy
6:53 PM 57.9 °F 53.1 °F 84% 30.03 in 6.0 mi South 8.1 mph - 0.04 in Rain Light Rain
7:53 PM 57.0 °F 53.1 °F 87% 30.03 in 10.0 mi SE 5.8 mph - 0.00 in   Overcast
8:53 PM 55.9 °F 53.1 °F 90% 30.04 in 10.0 mi SSE 4.6 mph - 0.02 in Rain Light Rain
9:53 PM 55.9 °F 53.1 °F 90% 30.04 in 10.0 mi ENE 4.6 mph - 0.00 in Rain Light Rain
10:37 PM 55.9 °F 53.1 °F 90% 30.20 in 10.0 mi Calm Calm - 0.00 in Rain , Thunderstorm Light Rain
10:53 PM 55.9 °F 53.1 °F 90% 30.01 in 10.0 mi SE 10.4 mph - 0.01 in Rain Light Rain
11:53 PM 55.9 °F 53.1 °F 90% 30.03 in 10.0 mi NW 5.8 mph - 0.02 in   Overcast